Atlanta Fulton, GA

5:19 PM EST on November 11, 2019 (GMT -0500)
Fulton County-Brown

Weather History for KFTY - August, 2019

Change the Weather History Date:

Thursday, August 22, 2019

  Actual Average Record
Temperature  
Mean Temperature 84 °F 78 °F  
Max Temperature 94 °F 88 °F 102 °F (2007)
Min Temperature 73 °F 69 °F 59 °F (1998)
Cooling Degree Days 19 13  
Month to date cooling degree days 383 315  
Year to date cooling degree days 1601 1324  
Since 1 June cooling degree days 1235 1124  
Growing Degree Days 33 (Base 50)    
Moisture  
Dew Point 68 °F    
Average Humidity 62    
Maximum Humidity 87    
Minimum Humidity 36    
Precipitation  
Precipitation 0.00 in 0.16 in 2.14 in (1992)
Month to date precipitation 1.06 3.56  
Year to date precipitation 29.72 34.24  
Sea Level Pressure  
Sea Level Pressure 30.02 in    
Wind  
Wind Speed 5 mph (SW)    
Max Wind Speed 14 mph    
Max Gust Speed 18 mph    
Visibility 10 miles    
Events      
T = Trace of Precipitation, MM = Missing Value Source: NWS Daily Summary

Daily Weather History Graph

Daily Weather History Graph

Search for Another Location

Airport or City:

Astronomy

Aug. 22, 2019 Rise Set
Actual Time 7:04 AM EDT 8:16 PM EDT
Civil Twilight 6:38 AM EDT 8:42 PM EDT
Nautical Twilight 6:07 AM EDT 9:13 PM EDT
Astronomical Twilight 5:35 AM EDT 9:45 PM EDT
Moon No Moon Rise 1:21 PM EDT (8/22)
Length of Visible Light 14h 03m
Length of Day
13h 11m
Waning Gibbous, 60% of the Moon is Illuminated
Aug 22
Waning Gibbous
Aug 23
Last Quarter
Aug 30
New
Sep 5
First Quarter
Sep 14
Full

Hourly Weather History & Observations

Time (EDT) Temp. Heat Index Dew Point Humidity Pressure Visibility Wind Dir Wind Speed Gust Speed Precip Events Conditions
12:53 AM 80.1 °F 82.9 °F 69.1 °F 69% 30.05 in 10.0 mi South 6.9 mph - N/A   Clear
1:53 AM 79.0 °F - 69.1 °F 72% 30.04 in 10.0 mi SSW 4.6 mph - N/A   Clear
2:53 AM 78.1 °F - 69.1 °F 74% 30.01 in 10.0 mi SW 4.6 mph - N/A   Clear
3:53 AM 77.0 °F - 69.1 °F 76% 30.02 in 10.0 mi SSW 5.8 mph - N/A   Clear
4:53 AM 75.0 °F - 70.0 °F 84% 30.02 in 10.0 mi SW 8.1 mph - N/A   Clear
5:53 AM 75.0 °F - 70.0 °F 84% 30.05 in 10.0 mi Calm Calm - N/A   Clear
6:53 AM 73.0 °F - 69.1 °F 87% 30.06 in 10.0 mi Calm Calm - N/A   Clear
7:53 AM 73.9 °F - 70.0 °F 87% 30.06 in 10.0 mi Calm Calm - N/A   Clear
8:53 AM 79.0 °F - 70.0 °F 74% 30.08 in 10.0 mi Calm Calm - N/A   Clear
9:53 AM 82.0 °F 85.5 °F 69.1 °F 65% 30.08 in 9.0 mi West 5.8 mph - N/A   Clear
10:53 AM 86.0 °F 90.1 °F 69.1 °F 57% 30.07 in 10.0 mi NNW 5.8 mph - N/A   Partly Cloudy
11:53 AM 87.1 °F 90.6 °F 68.0 °F 53% 30.06 in 10.0 mi SSW 9.2 mph - N/A   Partly Cloudy
12:53 PM 87.1 °F 89.2 °F 66.0 °F 49% 30.04 in 10.0 mi SSW 3.5 mph - N/A   Mostly Cloudy
1:53 PM 90.0 °F 92.8 °F 66.9 °F 46% 30.03 in 10.0 mi WNW 5.8 mph - N/A   Mostly Cloudy
3:53 PM 91.0 °F 93.0 °F 64.9 °F 42% 29.97 in 10.0 mi North - - N/A   Partly Cloudy
4:53 PM 93.0 °F 95.0 °F 64.9 °F 39% 29.96 in 10.0 mi SW 9.2 mph - N/A   Scattered Clouds
5:53 PM 93.0 °F 93.8 °F 62.1 °F 36% 29.95 in 10.0 mi Variable 6.9 mph - N/A   Scattered Clouds
6:53 PM 91.0 °F 93.0 °F 64.9 °F 42% 29.95 in 10.0 mi SSW 10.4 mph - N/A   Clear
7:53 PM 89.1 °F 91.0 °F 64.9 °F 45% 29.95 in 10.0 mi SSW 6.9 mph - N/A   Clear
8:53 PM 87.1 °F 89.2 °F 66.0 °F 49% 29.97 in 10.0 mi SSW 4.6 mph - N/A   Clear
9:53 PM 84.9 °F 87.1 °F 66.0 °F 53% 29.99 in 10.0 mi South 3.5 mph - N/A   Clear
11:53 PM 82.0 °F 84.5 °F 66.9 °F 60% 30.01 in 10.0 mi South 4.6 mph - N/A   Mostly Cloudy